DAL1979 KLAX-KATL

Flight info

Callsign DAL1979
Flight time 3h 20m
Altitude 41000
Route DOTSS2 CLEEE PKE HIDAT KA27O NABOB J74 SJN J231 ACH TCC J78 IRW J14 LIT J66 BEATS RUSSA GLAVN2
Aircraft A359/H-SDE2E3GHIJ3J4J5LM1ORWXY/LB1D1

Departure

Time 2026-05-04 19:30
Airport Los Angeles International Airport (KLAX)

Arrival

Time 2026-05-04 22:50
Airport Hartsfield Jackson Atlanta International Airport (KATL)
Time Latitude Longitude Altitude Speed Heading
2026-05-04 18:27 33.94524 -118.41166 128 ft 0 kts 99°
2026-05-04 19:18 33.94526 -118.41178 128 ft 3 kts 98°
2026-05-04 19:18 33.94528 -118.41202 132 ft 3 kts 96°
2026-05-04 19:18 33.94530 -118.41224 122 ft 2 kts 97°
2026-05-04 19:18 33.94531 -118.41245 128 ft 3 kts 74°
2026-05-04 19:19 33.94523 -118.41262 129 ft 3 kts 28°
2026-05-04 19:19 33.94505 -118.41270 130 ft 3 kts
2026-05-04 19:19 33.94492 -118.41273 132 ft 1 kts 12°
2026-05-04 19:19 33.94488 -118.41274 132 ft 0 kts 12°
2026-05-04 19:22 33.94494 -118.41272 132 ft 2 kts 13°
2026-05-04 19:22 33.94528 -118.41267 128 ft 8 kts
2026-05-04 19:23 33.94598 -118.41272 130 ft 12 kts 354°
2026-05-04 19:23 33.94689 -118.41284 126 ft 15 kts 353°
2026-05-04 19:23 33.94776 -118.41260 129 ft 14 kts 48°
2026-05-04 19:23 33.94812 -118.41132 130 ft 18 kts 79°
2026-05-04 19:24 33.94831 -118.40992 124 ft 17 kts 82°
2026-05-04 19:24 33.94846 -118.40843 132 ft 15 kts 84°
2026-05-04 19:24 33.94859 -118.40700 132 ft 18 kts 84°
2026-05-04 19:24 33.94867 -118.40610 132 ft 13 kts 84°
2026-05-04 19:25 33.94878 -118.40484 124 ft 18 kts 84°
2026-05-04 19:25 33.94894 -118.40317 132 ft 22 kts 84°
2026-05-04 19:25 33.94910 -118.40142 132 ft 13 kts 83°
2026-05-04 19:25 33.94925 -118.40090 128 ft 0 kts 59°
2026-05-04 19:26 33.94926 -118.40087 129 ft 0 kts 59°
2026-05-04 19:28 33.94927 -118.40086 130 ft 2 kts 57°
2026-05-04 19:28 33.94973 -118.40068 128 ft 13 kts 355°
2026-05-04 19:28 33.95019 -118.40141 121 ft 12 kts 269°
2026-05-04 19:28 33.95019 -118.40159 121 ft 0 kts 268°
2026-05-04 19:29 33.95017 -118.40226 124 ft 35 kts 266°
2026-05-04 19:29 33.94955 -118.40830 126 ft 108 kts 262°
2026-05-04 19:29 33.94775 -118.42419 374 ft 165 kts 261°
2026-05-04 19:30 33.94678 -118.43358 898 ft 170 kts 261°
2026-05-04 19:30 33.94543 -118.44816 1656 ft 185 kts 262°
2026-05-04 19:30 33.94384 -118.46436 2089 ft 202 kts 262°
2026-05-04 19:30 33.94250 -118.48201 2424 ft 223 kts 266°
2026-05-04 19:31 33.94202 -118.50140 2881 ft 238 kts 268°
2026-05-04 19:31 33.94148 -118.52152 3577 ft 243 kts 266°
2026-05-04 19:31 33.93998 -118.54183 4285 ft 245 kts 264°
2026-05-04 19:31 33.93824 -118.56244 4965 ft 250 kts 264°
2026-05-04 19:32 33.93651 -118.58341 5677 ft 253 kts 265°
2026-05-04 19:32 33.93418 -118.60427 6387 ft 256 kts 258°
2026-05-04 19:32 33.92665 -118.62378 7088 ft 261 kts 233°
2026-05-04 19:32 33.91236 -118.63745 7820 ft 268 kts 207°
2026-05-04 19:33 33.89396 -118.64208 8579 ft 275 kts 183°
2026-05-04 19:33 33.87468 -118.64082 9337 ft 279 kts 179°
2026-05-04 19:33 33.85520 -118.63884 10051 ft 283 kts 179°
2026-05-04 19:33 33.83553 -118.63319 10430 ft 303 kts 160°
2026-05-04 19:34 33.81687 -118.61972 10724 ft 322 kts 148°
2026-05-04 19:34 33.79810 -118.60382 11022 ft 337 kts 148°
2026-05-04 19:34 33.77878 -118.58768 11378 ft 347 kts 149°
2026-05-04 19:34 33.75874 -118.57116 11883 ft 351 kts 149°
2026-05-04 19:35 33.73842 -118.55452 12418 ft 355 kts 149°
2026-05-04 19:35 33.71787 -118.53762 12953 ft 359 kts 148°
2026-05-04 19:35 33.69938 -118.51710 13455 ft 369 kts 131°
2026-05-04 19:35 33.68714 -118.48971 13977 ft 377 kts 114°
2026-05-04 19:36 33.67839 -118.45981 14423 ft 382 kts 112°
2026-05-04 19:36 33.66974 -118.42945 14814 ft 386 kts 112°
2026-05-04 19:36 33.66083 -118.39877 15228 ft 390 kts 113°
2026-05-04 19:36 33.65176 -118.36784 15633 ft 395 kts 113°
2026-05-04 19:37 33.64487 -118.33570 16043 ft 404 kts 99°
2026-05-04 19:37 33.64383 -118.30167 16483 ft 411 kts 92°
2026-05-04 19:37 33.64414 -118.26727 16856 ft 416 kts 92°
2026-05-04 19:37 33.64438 -118.23234 17276 ft 420 kts 92°
2026-05-04 19:38 33.64452 -118.19716 17656 ft 424 kts 93°
2026-05-04 19:38 33.64458 -118.16147 18027 ft 429 kts 93°
2026-05-04 19:38 33.64461 -118.12599 18401 ft 433 kts 94°
2026-05-04 19:38 33.64461 -118.08976 18732 ft 437 kts 94°
2026-05-04 19:39 33.64459 -118.05319 19070 ft 440 kts 94°
2026-05-04 19:39 33.64456 -118.01618 19478 ft 444 kts 94°
2026-05-04 19:39 33.64451 -117.97904 19822 ft 447 kts 94°
2026-05-04 19:39 33.64444 -117.94158 20161 ft 451 kts 95°
2026-05-04 19:40 33.64436 -117.90378 20506 ft 454 kts 95°
2026-05-04 19:40 33.64428 -117.86568 20842 ft 458 kts 95°
2026-05-04 19:40 33.64419 -117.82737 21177 ft 461 kts 95°
2026-05-04 19:40 33.64591 -117.78850 21488 ft 470 kts 85°
2026-05-04 19:41 33.65226 -117.75037 21820 ft 475 kts 80°
2026-05-04 19:41 33.65991 -117.71162 22132 ft 479 kts 80°
2026-05-04 19:41 33.66764 -117.67237 22452 ft 483 kts 80°
2026-05-04 19:41 33.67529 -117.63306 22766 ft 486 kts 80°
2026-05-04 19:42 33.68295 -117.59342 23089 ft 489 kts 81°
2026-05-04 19:42 33.69063 -117.55346 23439 ft 492 kts 81°
2026-05-04 19:42 33.69835 -117.51324 23722 ft 496 kts 81°
2026-05-04 19:42 33.70610 -117.47278 23982 ft 499 kts 81°
2026-05-04 19:43 33.71390 -117.43196 24128 ft 503 kts 81°
2026-05-04 19:43 33.72168 -117.39087 24393 ft 505 kts 81°
2026-05-04 19:43 33.72947 -117.34976 24722 ft 506 kts 82°
2026-05-04 19:43 33.73729 -117.30848 24986 ft 509 kts 82°
2026-05-04 19:44 33.74513 -117.26683 25221 ft 511 kts 82°
2026-05-04 19:44 33.75058 -117.22542 25450 ft 506 kts 93°
2026-05-04 19:44 33.75089 -117.18331 25748 ft 502 kts 99°
2026-05-04 19:44 33.74990 -117.14130 26035 ft 504 kts 99°
2026-05-04 19:45 33.74887 -117.09915 26315 ft 506 kts 100°
2026-05-04 19:45 33.74790 -117.05677 26601 ft 509 kts 100°
2026-05-04 19:45 33.74694 -117.01404 26872 ft 511 kts 100°
2026-05-04 19:45 33.74600 -116.97128 27155 ft 513 kts 100°
2026-05-04 19:46 33.74507 -116.92834 27455 ft 515 kts 101°
2026-05-04 19:46 33.74410 -116.88519 27733 ft 517 kts 101°
2026-05-04 19:46 33.74312 -116.84183 28019 ft 519 kts 101°
2026-05-04 19:46 33.74213 -116.79838 28332 ft 522 kts 101°
2026-05-04 19:47 33.74109 -116.75461 28654 ft 524 kts 101°
2026-05-04 19:47 33.74006 -116.71120 28918 ft 527 kts 101°
2026-05-04 19:47 33.73901 -116.66712 29220 ft 529 kts 101°
2026-05-04 19:47 33.73792 -116.62284 29548 ft 531 kts 101°
2026-05-04 19:48 33.73684 -116.57844 29970 ft 531 kts 102°
2026-05-04 19:48 33.73571 -116.53382 30259 ft 535 kts 102°
2026-05-04 19:48 33.73455 -116.48890 30443 ft 541 kts 102°
2026-05-04 19:48 33.73338 -116.44359 30646 ft 544 kts 101°
2026-05-04 19:49 33.73223 -116.39806 30850 ft 547 kts 104°
2026-05-04 19:49 33.73035 -116.35235 31064 ft 549 kts 104°
2026-05-04 19:49 33.72848 -116.30640 31311 ft 552 kts 104°
2026-05-04 19:49 33.72683 -116.26021 31546 ft 555 kts 103°
2026-05-04 19:50 33.72534 -116.21378 31774 ft 558 kts 103°
2026-05-04 19:50 33.72393 -116.16767 31996 ft 562 kts 103°
2026-05-04 19:50 33.72264 -116.12000 32207 ft 567 kts 102°
2026-05-04 19:50 33.72488 -116.07207 32353 ft 584 kts 90°
2026-05-04 19:51 33.73391 -116.02397 32655 ft 594 kts 82°
2026-05-04 19:51 33.74566 -115.97618 32901 ft 598 kts 79°
2026-05-04 19:51 33.75842 -115.92834 33087 ft 603 kts 78°
2026-05-04 19:51 33.77177 -115.88042 33273 ft 606 kts 78°
2026-05-04 19:52 33.78520 -115.83311 33462 ft 608 kts 77°
2026-05-04 19:52 33.79892 -115.78479 33652 ft 611 kts 77°
2026-05-04 19:52 33.81259 -115.73623 33837 ft 614 kts 78°
2026-05-04 19:52 33.82624 -115.68727 34019 ft 616 kts 78°
2026-05-04 19:53 33.83975 -115.63837 34220 ft 617 kts 78°
2026-05-04 19:53 33.85321 -115.58937 34503 ft 616 kts 78°
2026-05-04 19:53 33.86663 -115.54039 34855 ft 614 kts 78°
2026-05-04 19:53 33.87994 -115.49166 35194 ft 613 kts 78°
2026-05-04 19:54 33.89306 -115.44354 35496 ft 612 kts 78°
2026-05-04 19:54 33.90630 -115.39489 35808 ft 611 kts 77°
2026-05-04 19:54 33.91956 -115.34623 36131 ft 610 kts 77°
2026-05-04 19:54 33.93277 -115.29767 36462 ft 609 kts 77°
2026-05-04 19:55 33.94593 -115.24926 36787 ft 608 kts 77°
2026-05-04 19:55 33.95906 -115.20094 37092 ft 607 kts 77°
2026-05-04 19:55 33.97219 -115.15256 37440 ft 606 kts 77°
2026-05-04 19:55 33.98528 -115.10424 37806 ft 604 kts 77°
2026-05-04 19:56 33.99815 -115.05665 38104 ft 603 kts 77°
2026-05-04 19:56 34.01111 -115.00862 38423 ft 602 kts 77°
2026-05-04 19:56 34.02408 -114.96047 38730 ft 601 kts 77°
2026-05-04 19:56 34.03692 -114.91270 39031 ft 599 kts 77°
2026-05-04 19:57 34.04971 -114.86505 39357 ft 596 kts 77°
2026-05-04 19:57 34.06244 -114.81752 39705 ft 592 kts 77°
2026-05-04 19:57 34.07506 -114.77032 40022 ft 590 kts 77°
2026-05-04 19:57 34.08744 -114.72393 40322 ft 587 kts 77°
2026-05-04 19:58 34.09993 -114.67707 40600 ft 585 kts 77°
2026-05-04 19:58 34.11259 -114.63043 40829 ft 584 kts 76°
2026-05-04 19:58 34.12560 -114.58388 40880 ft 586 kts 75°
2026-05-04 19:59 34.15198 -114.49078 40872 ft 586 kts 75°
2026-05-04 19:59 34.17827 -114.39744 40870 ft 587 kts 76°
2026-05-04 20:00 34.20429 -114.30403 40865 ft 587 kts 76°
2026-05-04 20:00 34.23023 -114.21034 40867 ft 587 kts 76°
2026-05-04 20:01 34.25597 -114.11714 40866 ft 587 kts 76°
2026-05-04 20:01 34.28175 -114.02348 40871 ft 586 kts 76°
2026-05-04 20:02 34.30744 -113.92981 40869 ft 587 kts 76°
2026-05-04 20:02 34.33311 -113.83596 40867 ft 587 kts 76°
2026-05-04 20:03 34.35850 -113.74276 40865 ft 587 kts 76°
2026-05-04 20:03 34.38398 -113.64892 40859 ft 586 kts 76°
2026-05-04 20:04 34.40939 -113.55502 40856 ft 586 kts 76°
2026-05-04 20:04 34.43473 -113.46104 40857 ft 586 kts 76°
2026-05-04 20:05 34.45982 -113.36770 40854 ft 586 kts 76°
2026-05-04 20:05 34.48498 -113.27376 40855 ft 586 kts 76°
2026-05-04 20:06 34.51004 -113.17985 40859 ft 585 kts 76°
2026-05-04 20:06 34.53508 -113.08576 40860 ft 586 kts 76°
2026-05-04 20:07 34.55720 -112.99095 40870 ft 580 kts 86°
2026-05-04 20:07 34.56017 -112.94263 40867 ft 569 kts 99°
2026-05-04 20:07 34.55880 -112.89473 40862 ft 568 kts 101°
2026-05-04 20:08 34.55288 -112.79967 40885 ft 570 kts 103°
2026-05-04 20:08 34.54583 -112.70390 40931 ft 571 kts 103°
2026-05-04 20:09 34.53905 -112.60791 40981 ft 572 kts 102°
2026-05-04 20:09 34.53251 -112.51170 41007 ft 572 kts 103°
2026-05-04 20:10 34.52595 -112.41549 41020 ft 572 kts 102°
2026-05-04 20:10 34.51932 -112.31924 40993 ft 572 kts 102°
2026-05-04 20:11 34.51260 -112.22304 40966 ft 572 kts 102°
2026-05-04 20:11 34.50586 -112.12744 40928 ft 573 kts 102°
2026-05-04 20:12 34.49885 -112.03111 40890 ft 572 kts 104°
2026-05-04 20:12 34.49178 -111.98419 40892 ft 560 kts 114°
2026-05-04 20:12 34.48174 -111.93870 40884 ft 558 kts 115°
2026-05-04 20:13 34.45961 -111.84846 40889 ft 558 kts 117°
2026-05-04 20:13 34.43667 -111.75851 40912 ft 559 kts 117°
2026-05-04 20:14 34.41396 -111.66891 40947 ft 560 kts 116°
2026-05-04 20:14 34.39124 -111.57870 41000 ft 560 kts 116°
2026-05-04 20:15 34.36848 -111.48835 41051 ft 561 kts 116°
2026-05-04 20:15 34.34566 -111.39806 41081 ft 562 kts 116°
2026-05-04 20:16 34.32820 -111.30504 41091 ft 578 kts 101°
2026-05-04 20:16 34.32926 -111.20703 41061 ft 582 kts 92°
2026-05-04 20:17 34.33452 -111.10929 41024 ft 582 kts 91°
2026-05-04 20:17 34.34018 -111.01228 40990 ft 581 kts 91°
2026-05-04 20:18 34.34537 -110.91476 40944 ft 581 kts 91°
2026-05-04 20:18 34.34941 -110.83351 40942 ft 581 kts 91°
2026-05-04 20:19 34.35420 -110.73586 40944 ft 581 kts 91°
2026-05-04 20:19 34.35961 -110.62229 40933 ft 581 kts 91°
2026-05-04 20:20 34.36344 -110.54032 40929 ft 581 kts 91°
2026-05-04 20:20 34.36795 -110.44314 40963 ft 582 kts 91°
2026-05-04 20:21 34.37241 -110.34539 41002 ft 582 kts 91°
2026-05-04 20:21 34.37894 -110.19851 41069 ft 582 kts 91°
2026-05-04 20:22 34.38323 -110.10032 41078 ft 583 kts 91°
2026-05-04 20:22 34.38740 -110.00284 41059 ft 583 kts 91°
2026-05-04 20:23 34.39152 -109.90459 41020 ft 583 kts 91°
2026-05-04 20:23 34.39555 -109.80656 40983 ft 583 kts 91°
2026-05-04 20:24 34.39952 -109.70836 40922 ft 583 kts 91°
2026-05-04 20:24 34.40341 -109.61013 40952 ft 583 kts 91°
2026-05-04 20:25 34.40720 -109.51260 40999 ft 584 kts 91°
2026-05-04 20:25 34.41094 -109.41429 41027 ft 584 kts 91°
2026-05-04 20:26 34.41459 -109.31599 41015 ft 584 kts 91°
2026-05-04 20:26 34.41817 -109.21767 40985 ft 584 kts 91°
2026-05-04 20:27 34.42594 -109.11967 40937 ft 588 kts 81°
2026-05-04 20:27 34.44253 -109.02275 40872 ft 586 kts 79°
2026-05-04 20:28 34.46047 -108.92639 40831 ft 585 kts 79°
2026-05-04 20:28 34.47846 -108.83020 40821 ft 585 kts 79°
2026-05-04 20:29 34.49603 -108.73462 40810 ft 584 kts 79°
2026-05-04 20:29 34.51354 -108.63828 40797 ft 584 kts 79°
2026-05-04 20:30 34.53094 -108.54197 40788 ft 584 kts 79°
2026-05-04 20:30 34.54826 -108.44571 40781 ft 584 kts 79°
2026-05-04 20:31 34.56549 -108.34944 40772 ft 584 kts 79°
2026-05-04 20:31 34.58262 -108.25323 40771 ft 584 kts 79°
2026-05-04 20:32 34.59960 -108.15742 40762 ft 583 kts 79°
2026-05-04 20:32 34.61665 -108.06102 40765 ft 583 kts 79°
2026-05-04 20:33 34.63358 -107.96474 40771 ft 583 kts 79°
2026-05-04 20:33 34.65047 -107.86812 40771 ft 583 kts 79°
2026-05-04 20:34 34.66727 -107.77156 40772 ft 584 kts 79°
2026-05-04 20:34 34.68389 -107.67563 40776 ft 585 kts 79°
2026-05-04 20:35 34.70057 -107.57884 40778 ft 585 kts 79°
2026-05-04 20:35 34.71720 -107.48182 40772 ft 586 kts 79°
2026-05-04 20:36 34.73376 -107.38477 40765 ft 587 kts 79°
2026-05-04 20:36 34.75032 -107.28718 40775 ft 588 kts 79°
2026-05-04 20:37 34.76679 -107.18966 40775 ft 589 kts 79°
2026-05-04 20:37 34.78310 -107.09262 40788 ft 588 kts 79°
2026-05-04 20:38 34.79936 -106.99522 40784 ft 587 kts 79°
2026-05-04 20:38 34.81557 -106.89778 40809 ft 587 kts 79°
2026-05-04 20:39 34.83169 -106.80032 40869 ft 586 kts 79°
2026-05-04 20:39 34.84767 -106.70314 40918 ft 585 kts 79°
2026-05-04 20:40 34.86349 -106.60656 40946 ft 584 kts 79°
2026-05-04 20:40 34.87931 -106.50943 40955 ft 583 kts 79°
2026-05-04 20:41 34.89502 -106.41238 40937 ft 583 kts 79°
2026-05-04 20:41 34.91065 -106.31543 40908 ft 583 kts 79°
2026-05-04 20:42 34.92607 -106.21915 40868 ft 583 kts 79°
2026-05-04 20:42 34.94157 -106.12193 40860 ft 583 kts 79°
2026-05-04 20:43 34.95702 -106.02456 40863 ft 584 kts 79°
2026-05-04 20:43 34.97237 -105.92724 40852 ft 584 kts 79°
2026-05-04 20:44 34.98754 -105.83046 40852 ft 584 kts 79°
2026-05-04 20:44 35.00272 -105.73313 40839 ft 584 kts 79°
2026-05-04 20:45 35.01784 -105.63562 40823 ft 584 kts 79°
2026-05-04 20:45 35.03286 -105.53820 40810 ft 584 kts 79°
2026-05-04 20:46 35.04778 -105.44094 40785 ft 583 kts 79°
2026-05-04 20:46 35.06256 -105.34404 40777 ft 582 kts 79°
2026-05-04 20:47 35.07731 -105.24691 40748 ft 582 kts 79°
2026-05-04 20:47 35.09199 -105.14965 40736 ft 582 kts 79°
2026-05-04 20:48 35.10631 -105.05215 40729 ft 584 kts 82°
2026-05-04 20:48 35.11353 -104.95404 40749 ft 585 kts 86°
2026-05-04 20:49 35.11888 -104.85468 40769 ft 586 kts 88°
2026-05-04 20:49 35.12386 -104.75517 40802 ft 587 kts 87°
2026-05-04 20:50 35.12892 -104.65543 40808 ft 588 kts 87°
2026-05-04 20:50 35.13401 -104.55614 40791 ft 589 kts 87°
2026-05-04 20:51 35.13908 -104.45623 40747 ft 589 kts 87°
2026-05-04 20:51 35.14405 -104.35622 40697 ft 590 kts 87°
2026-05-04 20:52 35.14896 -104.25602 40656 ft 590 kts 87°
2026-05-04 20:52 35.15375 -104.15641 40659 ft 591 kts 87°
2026-05-04 20:53 35.15847 -104.05610 40656 ft 591 kts 87°
2026-05-04 20:53 35.16310 -103.95574 40716 ft 592 kts 87°
2026-05-04 20:54 35.16767 -103.85522 40769 ft 592 kts 87°
2026-05-04 20:54 35.17216 -103.75481 40829 ft 592 kts 87°
2026-05-04 20:55 35.17656 -103.65422 40852 ft 592 kts 88°
2026-05-04 20:55 35.18085 -103.55365 40852 ft 593 kts 88°
2026-05-04 20:56 35.18439 -103.45288 40828 ft 593 kts 88°
2026-05-04 20:56 35.18760 -103.35220 40786 ft 593 kts 88°
2026-05-04 20:57 35.19082 -103.25187 40740 ft 593 kts 88°
2026-05-04 20:57 35.19407 -103.15095 40709 ft 593 kts 88°
2026-05-04 20:58 35.19727 -103.05012 40718 ft 593 kts 88°
2026-05-04 20:58 35.20038 -102.94924 40725 ft 594 kts 88°
2026-05-04 20:59 35.20340 -102.84829 40732 ft 594 kts 88°
2026-05-04 20:59 35.20633 -102.74728 40728 ft 594 kts 88°
2026-05-04 21:00 35.20915 -102.64696 40728 ft 594 kts 88°
2026-05-04 21:00 35.21193 -102.54573 40726 ft 595 kts 88°
2026-05-04 21:01 35.21461 -102.44451 40718 ft 595 kts 88°
2026-05-04 21:01 35.21722 -102.34334 40720 ft 595 kts 88°
2026-05-04 21:02 35.21974 -102.24198 40707 ft 596 kts 88°
2026-05-04 21:02 35.22216 -102.14131 40709 ft 596 kts 88°
2026-05-04 21:03 35.22452 -102.03996 40738 ft 596 kts 88°
2026-05-04 21:03 35.22678 -101.93851 40768 ft 596 kts 88°
2026-05-04 21:04 35.22897 -101.83710 40803 ft 596 kts 88°
2026-05-04 21:04 35.23107 -101.73561 40817 ft 597 kts 88°
2026-05-04 21:05 35.23368 -101.63399 40813 ft 597 kts 86°
2026-05-04 21:05 35.23862 -101.53337 40787 ft 596 kts 85°
2026-05-04 21:06 35.24390 -101.43206 40740 ft 596 kts 85°
2026-05-04 21:06 35.24791 -101.34773 40701 ft 596 kts 86°
2026-05-04 21:07 35.25237 -101.24639 40664 ft 597 kts 86°
2026-05-04 21:07 35.25667 -101.14494 40661 ft 597 kts 86°
2026-05-04 21:08 35.26092 -101.04344 40660 ft 596 kts 86°
2026-05-04 21:08 35.26509 -100.94252 40656 ft 596 kts 86°
2026-05-04 21:09 35.26920 -100.84092 40646 ft 596 kts 86°
2026-05-04 21:09 35.27322 -100.73949 40652 ft 596 kts 86°
2026-05-04 21:10 35.27713 -100.63877 40645 ft 597 kts 86°
2026-05-04 21:10 35.28098 -100.53719 40639 ft 597 kts 86°
2026-05-04 21:11 35.28476 -100.43550 40631 ft 597 kts 86°
2026-05-04 21:11 35.28844 -100.33396 40620 ft 597 kts 86°
2026-05-04 21:12 35.29204 -100.23232 40619 ft 597 kts 86°
2026-05-04 21:12 35.29553 -100.13140 40618 ft 597 kts 86°
2026-05-04 21:13 35.29895 -100.02969 40618 ft 597 kts 86°
2026-05-04 21:13 35.30230 -99.92802 40619 ft 597 kts 86°
2026-05-04 21:14 35.30556 -99.82634 40616 ft 597 kts 86°
2026-05-04 21:14 35.30872 -99.72537 40638 ft 597 kts 86°
2026-05-04 21:15 35.31182 -99.62356 40657 ft 597 kts 86°
2026-05-04 21:15 35.31482 -99.52173 40668 ft 597 kts 86°
2026-05-04 21:16 35.31774 -99.41997 40677 ft 597 kts 86°
2026-05-04 21:16 35.32056 -99.31897 40693 ft 597 kts 86°
2026-05-04 21:17 35.32330 -99.21744 40693 ft 597 kts 86°
2026-05-04 21:17 35.32597 -99.11570 40689 ft 597 kts 86°
2026-05-04 21:18 35.32855 -99.01405 40679 ft 597 kts 86°
2026-05-04 21:18 35.33104 -98.91225 40671 ft 597 kts 86°
2026-05-04 21:19 35.33348 -98.81069 40665 ft 597 kts 86°
2026-05-04 21:19 35.33579 -98.70905 40675 ft 596 kts 86°
2026-05-04 21:20 35.33798 -98.60815 40685 ft 596 kts 86°
2026-05-04 21:20 35.34011 -98.50660 40684 ft 596 kts 86°
2026-05-04 21:21 35.34215 -98.40519 40678 ft 595 kts 86°
2026-05-04 21:21 35.34411 -98.30387 40692 ft 595 kts 86°
2026-05-04 21:22 35.34600 -98.20247 40703 ft 595 kts 86°
2026-05-04 21:22 35.34780 -98.10168 40723 ft 595 kts 86°
2026-05-04 21:23 35.34951 -98.00034 40718 ft 595 kts 86°
2026-05-04 21:23 35.35112 -97.89902 40712 ft 595 kts 86°
2026-05-04 21:24 35.35266 -97.79740 40716 ft 596 kts 86°
2026-05-04 21:24 35.35410 -97.69579 40750 ft 596 kts 86°
2026-05-04 21:25 35.35307 -97.59403 40756 ft 598 kts 94°
2026-05-04 21:25 35.34398 -97.49321 40747 ft 600 kts 96°
2026-05-04 21:26 35.33325 -97.39171 40747 ft 601 kts 96°
2026-05-04 21:26 35.32232 -97.29029 40744 ft 600 kts 96°
2026-05-04 21:27 35.31151 -97.18881 40742 ft 600 kts 96°
2026-05-04 21:27 35.30076 -97.08744 40763 ft 600 kts 96°
2026-05-04 21:28 35.28997 -96.98630 40758 ft 599 kts 96°
2026-05-04 21:28 35.27915 -96.88579 40759 ft 599 kts 96°
2026-05-04 21:29 35.26814 -96.78465 40758 ft 599 kts 96°
2026-05-04 21:29 35.25706 -96.68356 40756 ft 598 kts 96°
2026-05-04 21:30 35.24588 -96.58234 40760 ft 598 kts 96°
2026-05-04 21:30 35.23474 -96.48214 40757 ft 598 kts 96°
2026-05-04 21:31 35.21776 -96.33102 40763 ft 598 kts 96°
2026-05-04 21:32 35.20633 -96.23039 40768 ft 598 kts 96°
2026-05-04 21:32 35.19474 -96.12947 40765 ft 598 kts 96°
2026-05-04 21:33 35.18318 -96.02881 40776 ft 598 kts 96°
2026-05-04 21:33 35.17153 -95.92803 40782 ft 598 kts 96°
2026-05-04 21:34 35.15986 -95.82793 40795 ft 598 kts 96°
2026-05-04 21:34 35.14801 -95.72706 40793 ft 598 kts 96°
2026-05-04 21:35 35.13610 -95.62636 40795 ft 598 kts 96°
2026-05-04 21:35 35.12407 -95.52572 40794 ft 598 kts 96°
2026-05-04 21:36 35.11197 -95.42563 40795 ft 598 kts 96°
2026-05-04 21:36 35.09884 -95.32530 40796 ft 599 kts 97°
2026-05-04 21:37 35.08528 -95.22499 40795 ft 598 kts 97°
2026-05-04 21:37 35.07177 -95.12461 40796 ft 598 kts 97°
2026-05-04 21:38 35.05835 -95.02437 40800 ft 598 kts 97°
2026-05-04 21:38 35.04487 -94.92423 40825 ft 597 kts 97°
2026-05-04 21:39 35.03137 -94.82472 40836 ft 597 kts 97°
2026-05-04 21:39 35.01771 -94.72479 40843 ft 597 kts 97°
2026-05-04 21:40 35.00494 -94.62489 40842 ft 595 kts 93°
2026-05-04 21:40 34.99813 -94.52455 40844 ft 592 kts 90°
2026-05-04 21:41 34.99262 -94.42450 40842 ft 591 kts 90°
2026-05-04 21:41 34.98607 -94.32466 40837 ft 591 kts 91°
2026-05-04 21:42 34.97872 -94.22475 40842 ft 591 kts 91°
2026-05-04 21:42 34.97125 -94.12550 40840 ft 590 kts 91°
2026-05-04 21:43 34.96366 -94.02601 40841 ft 589 kts 91°
2026-05-04 21:43 34.95603 -93.92658 40845 ft 588 kts 91°
2026-05-04 21:44 34.94836 -93.82722 40842 ft 588 kts 91°
2026-05-04 21:44 34.94070 -93.72852 40851 ft 588 kts 91°
2026-05-04 21:45 34.93290 -93.62926 40852 ft 587 kts 91°
2026-05-04 21:45 34.92503 -93.53028 40854 ft 586 kts 91°
2026-05-04 21:46 34.91705 -93.43144 40861 ft 586 kts 91°
2026-05-04 21:46 34.90908 -93.33329 40860 ft 585 kts 91°
2026-05-04 21:47 34.90098 -93.23460 40865 ft 585 kts 91°
2026-05-04 21:47 34.89281 -93.13599 40869 ft 584 kts 91°
2026-05-04 21:48 34.88456 -93.03738 40878 ft 584 kts 91°
2026-05-04 21:48 34.87624 -92.93917 40885 ft 583 kts 92°
2026-05-04 21:49 34.86785 -92.84088 40881 ft 583 kts 92°
2026-05-04 21:49 34.85944 -92.74337 40881 ft 583 kts 92°
2026-05-04 21:50 34.85090 -92.64529 40878 ft 582 kts 92°
2026-05-04 21:50 34.84230 -92.54725 40877 ft 581 kts 92°
2026-05-04 21:51 34.83359 -92.44930 40891 ft 581 kts 92°
2026-05-04 21:51 34.82483 -92.35126 40889 ft 582 kts 92°
2026-05-04 21:52 34.81604 -92.25396 40889 ft 582 kts 92°
2026-05-04 21:52 34.80907 -92.15622 40883 ft 575 kts 83°
2026-05-04 21:53 34.81575 -92.06003 40878 ft 566 kts 77°
2026-05-04 21:53 34.82539 -91.96500 40886 ft 565 kts 76°
2026-05-04 21:54 34.83539 -91.87067 40898 ft 565 kts 76°
2026-05-04 21:54 34.84518 -91.77565 40918 ft 565 kts 77°
2026-05-04 21:55 34.85475 -91.68040 40923 ft 566 kts 77°
2026-05-04 21:55 34.86416 -91.58529 40921 ft 566 kts 77°
2026-05-04 21:56 34.87194 -91.50603 40925 ft 567 kts 77°
2026-05-04 21:56 34.88278 -91.39507 40926 ft 567 kts 77°
2026-05-04 21:57 34.89048 -91.31576 40926 ft 567 kts 77°
2026-05-04 21:57 34.89966 -91.22032 40921 ft 567 kts 77°
2026-05-04 21:58 34.90876 -91.12490 40918 ft 567 kts 77°
2026-05-04 21:58 34.91779 -91.02943 40911 ft 567 kts 78°
2026-05-04 21:59 34.92672 -90.93416 40908 ft 567 kts 78°
2026-05-04 21:59 34.93561 -90.83848 40900 ft 566 kts 78°
2026-05-04 22:00 34.94441 -90.74303 40905 ft 566 kts 78°
2026-05-04 22:00 34.95312 -90.64769 40907 ft 565 kts 78°
2026-05-04 22:01 34.96170 -90.55299 40901 ft 565 kts 78°
2026-05-04 22:01 34.97030 -90.45725 40903 ft 564 kts 79°
2026-05-04 22:02 34.97871 -90.36279 40906 ft 563 kts 79°
2026-05-04 22:02 34.98709 -90.26790 40898 ft 563 kts 79°
2026-05-04 22:03 34.99536 -90.17314 40903 ft 562 kts 79°
2026-05-04 22:03 35.00357 -90.07827 40920 ft 561 kts 79°
2026-05-04 22:04 35.00898 -89.98301 40922 ft 566 kts 90°
2026-05-04 22:04 34.99876 -89.88751 40915 ft 570 kts 98°
2026-05-04 22:05 34.98472 -89.79258 40913 ft 571 kts 99°
2026-05-04 22:05 34.97013 -89.69722 40916 ft 571 kts 99°
2026-05-04 22:06 34.95589 -89.60226 40924 ft 570 kts 99°
2026-05-04 22:06 34.94177 -89.50713 40924 ft 569 kts 99°
2026-05-04 22:07 34.92765 -89.41229 40926 ft 568 kts 99°
2026-05-04 22:07 34.91348 -89.31767 40932 ft 567 kts 99°
2026-05-04 22:08 34.89922 -89.22312 40937 ft 567 kts 99°
2026-05-04 22:08 34.88490 -89.12873 40942 ft 566 kts 99°
2026-05-04 22:09 34.87051 -89.03437 40943 ft 566 kts 99°
2026-05-04 22:09 34.85616 -88.94077 40943 ft 565 kts 99°
2026-05-04 22:10 34.84166 -88.84672 40940 ft 565 kts 99°
2026-05-04 22:10 34.82709 -88.75267 40936 ft 565 kts 99°
2026-05-04 22:11 34.81243 -88.65858 40936 ft 564 kts 99°
2026-05-04 22:11 34.79774 -88.56475 40937 ft 564 kts 100°
2026-05-04 22:12 34.78308 -88.47165 40940 ft 563 kts 100°
2026-05-04 22:12 34.76827 -88.37810 40943 ft 562 kts 100°
2026-05-04 22:13 34.75339 -88.28470 40953 ft 562 kts 100°
2026-05-04 22:13 34.73846 -88.19136 40956 ft 562 kts 100°
2026-05-04 22:14 34.72347 -88.09829 40334 ft 560 kts 100°
2026-05-04 22:14 34.71593 -88.05179 39597 ft 562 kts 100°
2026-05-04 22:14 34.70830 -88.00496 38856 ft 564 kts 99°
2026-05-04 22:14 34.70070 -87.95861 38030 ft 566 kts 99°
2026-05-04 22:15 34.69299 -87.91174 37267 ft 564 kts 100°
2026-05-04 22:15 34.68528 -87.86505 36566 ft 561 kts 100°
2026-05-04 22:15 34.67760 -87.81870 35887 ft 557 kts 101°
2026-05-04 22:15 34.66997 -87.77274 35215 ft 553 kts 101°
2026-05-04 22:16 34.66239 -87.72701 34519 ft 550 kts 101°
2026-05-04 22:16 34.65491 -87.68166 33831 ft 546 kts 101°
2026-05-04 22:16 34.64817 -87.63655 33223 ft 539 kts 99°
2026-05-04 22:16 34.64214 -87.59221 32979 ft 525 kts 100°
2026-05-04 22:17 34.63603 -87.54916 32953 ft 508 kts 100°
2026-05-04 22:17 34.62991 -87.50749 32956 ft 492 kts 101°
2026-05-04 22:17 34.62395 -87.46740 32958 ft 476 kts 101°
2026-05-04 22:17 34.61812 -87.42844 32959 ft 464 kts 101°
2026-05-04 22:18 34.61220 -87.38932 32967 ft 477 kts 101°
2026-05-04 22:18 34.60603 -87.34924 32973 ft 490 kts 101°
2026-05-04 22:18 34.59963 -87.30822 32972 ft 498 kts 101°
2026-05-04 22:19 34.58666 -87.22536 32981 ft 499 kts 102°
2026-05-04 22:19 34.57378 -87.14318 32985 ft 499 kts 102°
2026-05-04 22:20 34.56077 -87.06038 32990 ft 498 kts 102°
2026-05-04 22:20 34.54774 -86.97785 32987 ft 498 kts 102°
2026-05-04 22:21 34.53087 -86.89647 32986 ft 496 kts 109°
2026-05-04 22:21 34.51001 -86.81650 32984 ft 497 kts 109°
2026-05-04 22:22 34.48931 -86.73710 32986 ft 497 kts 109°
2026-05-04 22:22 34.46849 -86.65738 32992 ft 496 kts 109°
2026-05-04 22:23 34.44760 -86.57761 32968 ft 493 kts 109°
2026-05-04 22:23 34.43724 -86.53818 32491 ft 488 kts 109°
2026-05-04 22:23 34.42698 -86.49909 31907 ft 486 kts 109°
2026-05-04 22:23 34.41681 -86.46044 31394 ft 481 kts 109°
2026-05-04 22:24 34.40663 -86.42182 30904 ft 477 kts 109°
2026-05-04 22:24 34.39658 -86.38373 30450 ft 473 kts 109°
2026-05-04 22:24 34.38658 -86.34591 29933 ft 469 kts 110°
2026-05-04 22:24 34.37668 -86.30851 29371 ft 465 kts 110°
2026-05-04 22:25 34.36695 -86.27180 28806 ft 461 kts 110°
2026-05-04 22:25 34.35718 -86.23497 28273 ft 458 kts 110°
2026-05-04 22:25 34.34745 -86.19840 27733 ft 455 kts 110°
2026-05-04 22:25 34.33777 -86.16203 27203 ft 451 kts 110°
2026-05-04 22:26 34.32821 -86.12598 26703 ft 448 kts 110°
2026-05-04 22:26 34.31894 -86.09010 26190 ft 445 kts 109°
2026-05-04 22:26 34.30977 -86.05443 25699 ft 442 kts 109°
2026-05-04 22:26 34.30076 -86.01952 25195 ft 439 kts 110°
2026-05-04 22:27 34.29166 -85.98440 24712 ft 436 kts 110°
2026-05-04 22:27 34.28264 -85.94961 24225 ft 433 kts 110°
2026-05-04 22:27 34.27361 -85.91491 23746 ft 430 kts 110°
2026-05-04 22:27 34.26462 -85.88036 23215 ft 427 kts 110°
2026-05-04 22:28 34.25573 -85.84626 22691 ft 423 kts 110°
2026-05-04 22:28 34.24689 -85.81245 22183 ft 419 kts 110°
2026-05-04 22:28 34.23816 -85.77902 21773 ft 414 kts 110°
2026-05-04 22:28 34.22946 -85.74579 21511 ft 414 kts 110°
2026-05-04 22:29 34.22089 -85.71312 21247 ft 413 kts 110°
2026-05-04 22:29 34.21222 -85.68012 20987 ft 410 kts 110°
2026-05-04 22:29 34.20359 -85.64731 20763 ft 408 kts 110°
2026-05-04 22:29 34.19500 -85.61468 20508 ft 407 kts 110°
2026-05-04 22:30 34.18641 -85.58210 20253 ft 405 kts 110°
2026-05-04 22:30 34.17792 -85.54989 20012 ft 403 kts 110°
2026-05-04 22:30 34.16940 -85.51767 19770 ft 401 kts 110°
2026-05-04 22:30 34.16093 -85.48563 19525 ft 399 kts 110°
2026-05-04 22:31 34.15247 -85.45370 19285 ft 398 kts 110°
2026-05-04 22:31 34.14406 -85.42196 19050 ft 396 kts 110°
2026-05-04 22:31 34.13577 -85.39072 18820 ft 394 kts 110°
2026-05-04 22:31 34.12753 -85.35915 18582 ft 393 kts 110°
2026-05-04 22:32 34.11943 -85.32766 18352 ft 391 kts 110°
2026-05-04 22:32 34.11137 -85.29639 18057 ft 390 kts 110°
2026-05-04 22:32 34.10330 -85.26521 17614 ft 387 kts 110°
2026-05-04 22:32 34.09527 -85.23427 17088 ft 385 kts 110°
2026-05-04 22:33 34.08732 -85.20362 16574 ft 381 kts 110°
2026-05-04 22:33 34.07942 -85.17325 16068 ft 378 kts 110°
2026-05-04 22:33 34.07158 -85.14316 15564 ft 375 kts 110°
2026-05-04 22:33 34.06378 -85.11326 15056 ft 372 kts 110°
2026-05-04 22:34 34.05605 -85.08368 14562 ft 368 kts 109°
2026-05-04 22:34 34.04842 -85.05441 14163 ft 363 kts 109°
2026-05-04 22:34 34.04064 -85.02560 14032 ft 360 kts 111°
2026-05-04 22:34 34.03328 -84.99661 14017 ft 362 kts 105°
2026-05-04 22:35 34.02674 -84.96737 14025 ft 360 kts 113°
2026-05-04 22:35 34.01573 -84.94041 14023 ft 360 kts 125°
2026-05-04 22:35 33.99839 -84.91799 14033 ft 372 kts 148°
2026-05-04 22:35 33.97498 -84.90620 14034 ft 371 kts 173°
2026-05-04 22:36 33.94940 -84.90579 14023 ft 369 kts 187°
2026-05-04 22:36 33.92354 -84.90480 14019 ft 377 kts 173°
2026-05-04 22:36 33.89854 -84.89465 14027 ft 382 kts 155°
2026-05-04 22:36 33.87680 -84.87619 14029 ft 384 kts 142°
2026-05-04 22:37 33.85673 -84.85517 14028 ft 383 kts 141°
2026-05-04 22:37 33.83724 -84.83319 14015 ft 385 kts 134°
2026-05-04 22:37 33.82153 -84.80715 14032 ft 387 kts 122°
2026-05-04 22:37 33.80949 -84.77831 14005 ft 387 kts 116°
2026-05-04 22:38 33.79838 -84.74883 13457 ft 387 kts 116°
2026-05-04 22:38 33.78751 -84.71957 13032 ft 378 kts 116°
2026-05-04 22:38 33.77694 -84.69114 12758 ft 365 kts 116°
2026-05-04 22:38 33.76685 -84.66400 12370 ft 356 kts 116°
2026-05-04 22:39 33.75672 -84.63674 12089 ft 348 kts 116°
2026-05-04 22:39 33.74707 -84.61068 12018 ft 333 kts 116°
2026-05-04 22:39 33.73781 -84.58577 11773 ft 323 kts 116°
2026-05-04 22:39 33.73002 -84.56095 11245 ft 323 kts 105°
2026-05-04 22:40 33.72710 -84.53432 10854 ft 319 kts 94°
2026-05-04 22:40 33.72674 -84.50778 10479 ft 316 kts 90°
2026-05-04 22:40 33.72723 -84.48402 10101 ft 314 kts 89°
2026-05-04 22:40 33.72822 -84.45783 9655 ft 312 kts 88°
2026-05-04 22:41 33.72965 -84.43193 9181 ft 310 kts 87°
2026-05-04 22:41 33.73081 -84.41489 8896 ft 308 kts 86°
2026-05-04 22:41 33.73262 -84.38933 8462 ft 306 kts 86°
2026-05-04 22:41 33.73444 -84.36408 8037 ft 303 kts 86°
2026-05-04 22:42 33.73685 -84.33086 7534 ft 297 kts 86°
2026-05-04 22:42 33.73861 -84.30648 7340 ft 286 kts 86°
2026-05-04 22:42 33.73976 -84.29063 7236 ft 279 kts 86°
2026-05-04 22:42 33.74147 -84.26770 7073 ft 269 kts 86°
2026-05-04 22:43 33.74308 -84.24581 7000 ft 258 kts 86°
2026-05-04 22:43 33.74463 -84.22476 6998 ft 255 kts 86°
2026-05-04 22:43 33.74531 -84.20351 7000 ft 254 kts 94°
2026-05-04 22:43 33.74109 -84.18324 6919 ft 250 kts 121°
2026-05-04 22:44 33.72928 -84.16844 6580 ft 248 kts 153°
2026-05-04 22:44 33.71298 -84.16193 6221 ft 246 kts 173°
2026-05-04 22:44 33.69608 -84.15844 5875 ft 246 kts 174°
2026-05-04 22:44 33.67929 -84.15531 5585 ft 243 kts 175°
2026-05-04 22:45 33.66260 -84.15227 5276 ft 241 kts 175°
2026-05-04 22:45 33.63318 -84.16387 4750 ft 229 kts 234°
2026-05-04 22:45 33.62750 -84.18130 4396 ft 227 kts 269°
2026-05-04 22:46 33.63015 -84.19988 4069 ft 227 kts 290°
2026-05-04 22:46 33.63535 -84.21739 3926 ft 218 kts 291°
2026-05-04 22:46 33.64051 -84.23383 3756 ft 202 kts 292°
2026-05-04 22:46 33.64533 -84.24903 3574 ft 187 kts 292°
2026-05-04 22:47 33.64889 -84.26357 3350 ft 180 kts 284°
2026-05-04 22:47 33.65143 -84.27814 2971 ft 177 kts 283°
2026-05-04 22:47 33.65379 -84.29246 2638 ft 170 kts 281°
2026-05-04 22:47 33.65442 -84.30599 2402 ft 159 kts 271°
2026-05-04 22:48 33.65391 -84.31905 2103 ft 152 kts 264°
2026-05-04 22:48 33.65252 -84.33106 2023 ft 140 kts 266°
2026-05-04 22:48 33.65140 -84.34260 1921 ft 139 kts 266°
2026-05-04 22:48 33.65050 -84.35413 1756 ft 136 kts 269°
2026-05-04 22:49 33.65008 -84.36538 1595 ft 137 kts 272°
2026-05-04 22:49 33.65002 -84.37672 1379 ft 135 kts 272°
2026-05-04 22:49 33.64995 -84.38783 1272 ft 134 kts 268°
2026-05-04 22:49 33.64977 -84.39913 1167 ft 136 kts 270°
2026-05-04 22:50 33.64961 -84.41053 1041 ft 139 kts 270°
2026-05-04 22:50 33.64956 -84.42176 1014 ft 128 kts 266°
2026-05-04 22:50 33.64938 -84.43101 1013 ft 83 kts 269°
2026-05-04 22:50 33.64941 -84.43541 1013 ft 37 kts 270°
2026-05-04 22:51 33.64926 -84.43710 1013 ft 14 kts 234°
2026-05-04 22:51 33.64872 -84.43739 1013 ft 4 kts 215°
2026-05-04 22:51 33.64845 -84.43780 1012 ft 7 kts 238°
2026-05-04 22:51 33.64843 -84.43783 1012 ft 0 kts 237°
2026-05-04 22:53 33.64835 -84.43797 1012 ft 6 kts 230°
2026-05-04 22:53 33.64774 -84.43824 1012 ft 13 kts 185°
2026-05-04 22:54 33.64669 -84.43824 1012 ft 18 kts 179°
2026-05-04 22:54 33.64583 -84.43823 1012 ft 15 kts 179°
2026-05-04 22:54 33.64496 -84.43814 1012 ft 12 kts 159°
2026-05-04 22:54 33.64457 -84.43704 1013 ft 19 kts 95°
2026-05-04 22:55 33.64456 -84.43527 1013 ft 20 kts 90°
2026-05-04 22:55 33.64454 -84.43325 1013 ft 24 kts 90°
2026-05-04 22:55 33.64452 -84.43136 1013 ft 23 kts 90°
2026-05-04 22:55 33.64450 -84.42945 1013 ft 15 kts 91°
2026-05-04 22:56 33.64448 -84.42821 1013 ft 13 kts 95°
2026-05-04 22:56 33.64386 -84.42743 1013 ft 12 kts 161°
2026-05-04 22:56 33.64345 -84.42722 1013 ft 8 kts 174°
2026-05-04 22:56 33.64306 -84.42697 1013 ft 7 kts 119°
2026-05-04 22:57 33.64299 -84.42643 1013 ft 3 kts 93°